Location: Akkrum
(53.0502°N, 5.8309°E)
Time: 02:37:04
(UTC+00:00)

Daily predictions for brighter satellites

Satellite Brightness Start Highest point End
(mag) Time Altitude Azimuth Time Altitude Azimuth Time Altitude Azimuth
CENTAUR R/B 4.2 02:03:00 25° ESE 02:03:00 25° ESE 02:08:10 10° ENE
ARIANE 5 R/B 4.3 02:23:01 10° NNE 02:25:18 26° NE 02:25:18 26° NE
Cosmos 2237 Rocket 4.5 02:34:16 14° N 02:34:16 14° N 02:36:36 10° NNE
Cosmos 1697 Rocket 3.7 02:34:59 42° ENE 02:34:59 42° ENE 02:39:46 10° ESE
Cosmos 2344 3.8 02:37:40 55° SE 02:38:22 57° SE 02:46:17 10° NE
ADEOS II 4.0 02:33:31 10° NNE 02:35:25 23° N 02:35:25 23° N
Lacrosse 4 Rocket 4.1 02:42:01 16° E 02:42:01 16° E 02:43:32 10° ENE
USA 238 DEB 4.0 02:41:03 56° ESE 02:41:03 56° ESE 02:47:36 10° NE
USA 238 4.0 02:41:08 56° ESE 02:41:08 56° ESE 02:47:42 10° NE
NOSS 3-2 (A) 3.9 02:44:26 57° E 02:44:26 57° E 02:50:17 10° NE
Resurs 1-4 Rocket 4.3 02:49:52 10° N 02:50:58 15° N 02:50:58 15° N
Cosmos 1980 Rocket 3.4 02:54:35 26° N 02:57:02 38° NE 03:02:15 10° ESE
USA 234 3.1 02:52:48 10° ENE 02:59:22 89° SE 02:59:22 89° SE
SL-16 R/B 4.2 03:00:37 17° NNW 03:00:37 17° NNW 03:03:31 10° NNE
ADEOS Rocket 3.1 02:58:00 10° SSE 03:03:23 62° ENE 03:09:02 10° N
CZ-2D R/B 4.3 03:09:23 10° N 03:10:17 14° NNW 03:10:17 14° NNW
IDEFIX/ARIANE 42P 3.2 03:15:10 10° NNE 03:18:52 46° N 03:18:52 46° N
Cosmos 2278 4.2 03:24:14 24° NNW 03:27:36 57° NE 03:33:10 10° SE
Cosmos 2322 Rocket 4.2 03:23:49 10° NNW 03:28:27 24° NE 03:33:02 10° E
MSX 3.6 03:25:46 10° NNE 03:31:32 81° WNW 03:32:03 73° SW
Cosmos 220 Rocket 4.4 03:32:31 63° E 03:32:31 63° E 03:36:39 10° SE
Cosmos 1300 4.5 03:28:56 10° N 03:32:24 31° ENE 03:35:51 10° SE
ALOS 4.3 03:29:15 10° NE 03:33:15 27° E 03:37:12 10° SSE
In-Cosmos 22 4.0 03:35:42 68° SSW 03:36:26 90° WNW 03:41:58 10° NNE
Cosmos 2279 Rocket 3.8 03:30:33 10° NNW 03:43:01 - S 03:36:37 64° W
Cosmos 1992 Rocket 4.2 03:34:01 24° NNW 03:37:10 68° ENE 03:42:22 10° SE
Cosmos 1833 Rocket 3.6 03:33:51 18° S 03:37:41 45° ESE 03:43:03 10° NE
CZ-4B R/B 3.0 03:34:33 10° SE 03:37:08 34° E 03:37:08 34° E
Cosmos 1674 3.9 03:42:36 37° NNE 03:42:36 37° NNE 03:45:01 10° NNE
Cosmos 1626 3.8 03:39:55 17° SSE 03:42:13 33° E 03:45:35 10° NNE
CZ-2C R/B 4.3 03:38:44 10° N 03:40:50 29° N 03:40:50 29° N
NOSS 3-2 (C) 3.4 03:43:22 52° SW 03:44:58 85° SE 03:51:47 10° NE
Cosmos 1536 Rocket 3.6 03:48:19 71° NNW 03:48:19 71° NNW 03:52:23 10° N
Cosmos 2369 3.5 03:49:30 40° NW 03:51:35 76° WSW 03:57:12 10° SSE
CENTAUR R/B 2.6 03:50:11 45° SW 03:52:26 89° SE 03:59:52 10° NE
Cosmos 1484 Rocket 4.3 03:52:18 10° NNE 03:55:56 36° E 03:59:28 10° SSE
Cosmos 2082 Rocket 3.4 03:55:26 10° S 04:00:37 40° ESE 04:05:50 10° NE
Cosmos 1461 4.4 03:57:50 18° S 04:00:48 39° ESE 04:05:11 10° NE
PSLV R/B 3.4 04:00:09 10° NNE 04:04:28 81° WNW 04:05:31 50° SSW
SL-16 R/B 3.4 03:59:47 10° NNW 04:05:08 40° NE 04:10:27 10° ESE
CZ-2C R/B 2.3 04:01:03 10° NNE 04:06:06 80° WNW 04:08:51 26° SSW
ARIANE 5 R/B 3.7 04:02:33 10° N 04:05:38 26° NW 04:05:38 26° NW
CREW DRAGON DEMO-1 DEB 4.1 04:08:42 35° SE 04:08:42 35° SE 04:10:43 10° ESE
USA 290 4.2 04:06:41 11° SSE 04:09:18 29° ESE 04:12:10 10° NE
ISS -2.2 04:09:06 27° SSE 04:09:28 27° SSE 04:12:23 10° E
Cosmos 2333 Rocket 4.4 04:10:19 10° NNW 04:14:18 19° NNE 04:18:16 10° ENE
ADEOS II 4.0 04:14:33 10° NNW 04:16:20 15° NNW 04:16:20 15° NNW
Cosmos 1697 Rocket 2.9 04:16:50 36° WNW 04:18:24 44° WSW 04:23:43 10° S
Lacrosse 4 Rocket 1.2 04:18:22 57° W 04:18:52 64° NW 04:22:56 10° NNE
SKYMED 2 4.1 04:14:57 10° SSE 04:19:12 59° ENE 04:23:31 10° N
Cosmos 2237 Rocket 4.5 04:17:27 10° NNW 04:20:09 13° N 04:22:51 10° NE
Meteor 1-31 Rocket 3.8 04:16:53 10° NNE 04:20:44 49° E 04:24:34 10° S
COSMOS 2406 3.1 04:21:37 23° SW 04:25:13 75° WNW 04:30:56 10° NNE
NOSS 5 (C) 4.5 04:25:46 56° NW 04:25:56 57° NW 04:29:01 10° NE
Lacrosse 5 rocket 1.6 04:25:45 32° SSW 04:27:08 53° SE 04:30:52 10° ENE
FENGYUN 3A 3.8 04:22:37 10° NNE 04:28:06 77° ESE 04:33:32 10° S
Meteor 2-5 Rocket 3.7 04:23:23 10° S 04:29:08 90° NE 04:35:02 10° NNE
Cosmos 2360 Rocket 3.8 04:24:23 10° NNW 04:29:25 32° NE 04:34:25 10° ESE
USA 238 DEB 3.9 04:28:30 29° W 04:31:56 55° NNW 04:38:52 10° NE
USA 238 3.9 04:28:35 29° W 04:32:02 55° NNW 04:38:59 10° NE
PAYLOAD A 4.2 04:27:42 10° N 04:32:33 47° WNW 04:35:50 20° SW
NOSS 3-2 (A) 3.9 04:31:50 29° W 04:34:50 50° NNW 04:41:41 10° NE
Cosmos 1726 Rocket 3.5 04:33:37 10° NNW 04:38:02 62° W 04:42:26 10° S
SAR-Lupe-4 3.5 04:35:32 10° S 04:39:04 62° WSW 04:42:39 10° NNW
ATLAS 3B R/B 2.9 04:34:08 10° SSW 04:40:40 71° SE 04:47:20 10° NE
ERS-2 3.7 04:37:44 10° SSW 04:39:16 21° SW 04:39:16 21° SW
Cosmos 1980 Rocket 2.3 04:36:25 13° NW 04:41:15 52° WSW 04:46:39 10° S
Cosmos 1025 Rocket 4.4 04:42:14 21° NW 04:42:14 21° NW 04:44:57 10° NNW
USA 234 3.4 04:35:49 10° ENE 04:42:17 65° N 04:46:42 22° W
Cosmos 2228 3.3 04:39:00 10° NNW 04:43:07 42° W 04:47:15 10° SSW
Abrixas rocket 4.0 04:43:59 15° SSW 04:43:59 15° SSW 04:45:29 10° SSE
SL-16 R/B 4.4 04:43:57 10° NNW 04:46:24 13° N 04:48:50 10° NNE
Meteor 2-13 Rocket 4.4 04:41:20 10° SSW 04:47:29 74° WNW 04:53:39 10° N
Cosmos 1092 Rocket 3.9 04:42:16 10° SSW 04:48:27 80° W 04:54:45 10° N
ADEOS 3.5 04:43:56 10° NNE 04:49:11 74° WNW 04:54:24 10° SSW
ADEOS Rocket 3.6 04:45:01 10° SW 04:49:30 25° W 04:54:08 10° NW
Aureole 3 3.5 04:47:42 10° NNW 04:51:38 66° W 04:56:38 10° S
Nadezhda 4 Rocket 4.1 04:46:53 10° SSW 04:52:49 51° WNW 04:58:49 10° N
Cosmos 2344 3.9 04:47:42 21° W 04:52:56 55° NNW 05:01:43 10° NE
Cosmos 1606 Rocket 4.1 04:49:40 10° NNW 04:53:47 36° W 04:57:54 10° SSW
Cosmos 1400 Rocket 3.0 04:50:47 10° NNW 04:54:34 44° W 04:58:17 10° SSW
CZ-4B R/B 3.8 04:50:40 10° NNE 04:54:58 78° WNW 04:59:01 10° SSW
Cosmos 2219 Rocket 4.1 04:50:45 10° NNW 04:55:20 24° NE 04:59:54 10° E
SAR-Lupe-1 4.4 04:53:35 10° S 04:57:00 42° W 05:00:27 10° NNW
IDEFIX/ARIANE 42P 4.1 04:56:04 10° NNW 04:59:08 16° NW 04:59:40 16° WNW
S3M 4.3 05:00:00 10° N 05:06:18 73° ENE 05:12:39 10° SSE
COSMO-SKYMED 1 2.7 05:03:05 10° S 05:07:19 51° W 05:11:35 10° NNW
Cosmos 1300 3.6 05:04:43 10° NNW 05:07:59 27° W 05:11:13 10° SSW
ARGOS Delta rocket 4.1 05:02:53 10° N 05:08:15 73° WNW 05:13:42 10° SSW
CZ-4B R/B 2.8 05:07:32 10° SW 05:10:09 20° W 05:10:16 20° W
ALOS 2.5 05:06:23 10° N 05:10:53 48° WNW 05:15:22 10° SW
Cosmos 2278 4.4 05:06:32 10° NW 05:11:29 32° WSW 05:16:25 10° SSW
Meteor 2-10 Rocket 3.4 05:07:47 10° NNW 05:12:48 73° W 05:17:50 10° S
Cosmos 2322 Rocket 2.3 05:07:39 10° NNW 05:13:23 81° ENE 05:19:03 10° SE
Cosmos 1689 Rocket 2.8 05:14:01 10° SSW 05:16:40 30° W 05:19:19 10° NNW
Cosmos 1674 4.5 05:17:27 14° WNW 05:17:27 14° WNW 05:19:18 10° NNW
Cosmos 1626 3.2 05:14:34 11° WSW 05:17:31 24° WNW 05:20:38 10° NNW
SL-14 R/B 4.1 05:14:07 10° SW 05:17:43 31° WNW 05:21:22 10° N
deb Chang Zheng 4 3.9 05:16:55 10° N 05:20:57 42° WNW 05:24:57 10° SW
Cosmos 1833 Rocket 3.1 05:16:18 10° WSW 05:21:41 43° NW 05:27:06 10° NNE
MOS 1 Rocket 3.3 05:18:14 10° SSE 05:22:29 74° ENE 05:26:50 10° N
METEOR-M 4.3 05:18:39 10° N 05:23:51 52° WNW 05:28:59 10° SW
Cosmos 2084 3.7 05:21:35 10° SW 05:25:54 75° SE 05:30:21 10° NE
H-2A R/B 3.6 05:21:38 10° NNE 05:25:59 52° E 05:30:09 10° S
Cosmos 1315 Rocket 2.9 05:22:20 10° NNW 05:26:23 57° W 05:30:26 10° S
SJ-12 4.0 05:22:42 10° N 05:26:45 55° WNW 05:30:45 10° SSW
Cosmos 2058 Rocket 3.8 05:24:15 10° NNW 05:28:17 33° W 05:32:16 10° SSW
SL-19 R/B 4.1 05:25:40 10° N 05:28:18 34° WNW 05:30:55 10° SW
Cosmos 192 4.3 05:24:49 10° NNW 05:29:49 79° WSW 05:34:46 10° SSE
Cosmos 1484 Rocket 3.7 05:26:56 10° N 05:30:13 26° WNW 05:33:26 10° WSW
ASTRO F (AKARI) 4.4 05:27:03 10° N 05:30:37 68° WNW 05:33:59 10° SSW
Elektron 1 3.7 05:28:43 10° SW 05:31:37 88° SE 05:34:54 10° NE
Okean 1-7 Rocket 3.8 05:27:58 10° SSW 05:32:24 51° WNW 05:36:49 10° N
H-2A R/B 2.9 05:29:02 10° NNE 05:32:52 79° ESE 05:36:43 10° S
SL-27 R/B 4.1 05:29:59 10° S 05:33:23 40° ESE 05:36:48 10° NE
Cosmos 1553 Rocket 4.0 05:29:36 10° NNW 05:35:35 56° W 05:41:30 10° SSW
NOSS 3-2 (C) 4.2 05:30:49 11° W 05:36:33 42° NNW 05:43:22 10° NE
Meteor PRIRODA 3.8 05:35:51 10° N 05:39:23 48° WNW 05:42:55 10° SW
Cosmos 1461 3.5 05:35:22 10° WSW 05:39:52 49° NW 05:44:31 10° NE
Meteor 2-15 Rocket 4.4 05:33:52 10° NNW 05:39:58 72° W 05:46:01 10° S
Meteor 1-24 Rocket 4.3 05:35:41 10° SW 05:40:59 38° WNW 05:46:28 10° N
Cosmos 1892 Rocket 4.3 05:37:10 10° SW 05:41:05 32° WNW 05:45:04 10° N
SJ-7 4.4 05:39:25 10° NNE 05:43:29 88° E 05:47:28 10° SSW
CZ-2C R/B 3.9 05:40:26 10° NNW 05:43:33 17° NW 05:46:38 10° W
USA 290 3.3 05:40:57 10° WSW 05:43:43 25° NW 05:46:31 10° N
CENTAUR R/B 3.3 05:37:38 10° W 05:43:57 44° NNW 05:51:22 10° NE
Cosmos 2082 Rocket 2.5 05:39:16 10° WSW 05:44:40 47° NW 05:50:08 10° NNE
ISS -3.4 05:42:36 10° WSW 05:45:56 64° S 05:49:16 10° E
Cosmos 614 Rocket 3.9 05:41:21 10° SW 05:46:28 66° WNW 05:51:34 10° NNE
CZ-4B DEB 4.5 05:42:32 10° NNE 05:48:05 79° ESE 05:53:34 10° SSW
SL-16 R/B 2.5 05:43:56 10° NW 05:49:26 51° WSW 05:54:54 10° S
Cosmos 2026 Rocket 4.4 05:43:59 10° SW 05:50:01 43° WNW 05:56:04 10° N
Cosmos 2251 Rocket 4.1 05:49:21 10° WSW 05:54:20 37° NW 05:59:18 10° NNE
Meteor 1-31 Rocket 4.1 05:51:50 10° N 05:54:53 22° WNW 05:57:55 10° WSW
